Weather History for KSFZ - March, 2013

Change the Weather History Date:

Saturday, March 9, 2013

  Actual Average Record
Temperature  
Mean Temperature 35 °F -  
Max Temperature 42 °F 39 °F 66 °F (2002)
Min Temperature 28 °F 23 °F 3 °F (2007)
Degree Days  
Heating Degree Days 30    
Moisture  
Dew Point 21 °F    
Average Humidity 59    
Maximum Humidity 86    
Minimum Humidity 46    
Precipitation  
Precipitation 0.00 in - - ()
Sea Level Pressure  
Sea Level Pressure 30.22 in    
Wind  
Wind Speed 14 mph (NNE)    
Max Wind Speed 21 mph    
Max Gust Speed 28 mph    
Visibility 10 miles    
Events      
Averages and records for this station are not official NWS values.
T = Trace of Precipitation, MM = Missing Value Source: NWS Daily Summary

Daily Weather History Graph

Daily Weather History Graph

Search for Another Location

Airport or City:

Trip Planner

Search our weather history database for the weather conditions in past years. The results will help you decide how hot, cold, wet, or windy it might be!

Date:

Astronomy

Mar. 09, 2013 Rise Set
Actual Time 6:07 AM EST 5:45 PM EST
Civil Twilight 5:39 AM EST 6:13 PM EST
Nautical Twilight 5:07 AM EST 6:46 PM EST
Astronomical Twilight 4:34 AM EST 7:18 PM EST
Moon 4:31 AM EST (3/9) 3:43 PM EST (3/9)
Length of Visible Light 12h 33m
Length of Day
11h 38m
Waning Crescent, 5% of the Moon is Illuminated
Mar 9
Waning Crescent
Mar 11
New
Mar 19
First Quarter
Mar 27
Full
Apr 3
Last Quarter

Hourly Weather History & Observations

Time (EST) Temp. Windchill Dew Point Humidity Pressure Visibility Wind Dir Wind Speed Gust Speed Precip Events Conditions
12:15 AM 35.6 °F 25.9 °F 19.4 °F 52% 30.12 in 10.0 mi North 16.1 mph 21.9 mph N/A   Clear
12:35 AM 35.6 °F 26.2 °F 19.4 °F 52% 30.12 in 10.0 mi North 15.0 mph 21.9 mph N/A   Clear
12:55 AM 35.6 °F 26.2 °F 19.4 °F 52% 30.12 in 10.0 mi North 15.0 mph - N/A   Clear
1:15 AM 35.6 °F 26.6 °F 19.4 °F 52% 30.13 in 10.0 mi North 13.8 mph - N/A   Clear
1:55 AM 33.8 °F 23.2 °F 17.6 °F 52% 30.13 in 10.0 mi North 17.3 mph 24.2 mph N/A   Clear
2:15 AM 33.8 °F 24.3 °F 17.6 °F 52% 30.13 in 10.0 mi North 13.8 mph 19.6 mph N/A   Clear
2:35 AM 33.8 °F 23.5 °F 17.6 °F 52% 30.13 in 10.0 mi North 16.1 mph 21.9 mph N/A   Clear
2:55 AM 33.8 °F 24.3 °F 17.6 °F 52% 30.12 in 10.0 mi North 13.8 mph 19.6 mph N/A   Clear
3:15 AM 33.8 °F 24.3 °F 17.6 °F 52% 30.12 in 10.0 mi North 13.8 mph - N/A   Clear
3:35 AM 33.8 °F 23.9 °F 17.6 °F 52% 30.12 in 10.0 mi North 15.0 mph 21.9 mph N/A   Clear
4:15 AM 32.0 °F 21.6 °F 15.8 °F 51% 30.13 in 10.0 mi North 15.0 mph - N/A   Clear
4:35 AM 32.0 °F 22.1 °F 15.8 °F 51% 30.14 in 10.0 mi North 13.8 mph 21.9 mph N/A   Clear
4:55 AM 30.2 °F 19.3 °F 15.8 °F 55% 30.14 in 10.0 mi North 15.0 mph 23.0 mph N/A   Clear
5:15 AM 32.0 °F 20.8 °F 15.8 °F 51% 30.15 in 10.0 mi North 17.3 mph 25.3 mph N/A   Clear
5:35 AM 30.2 °F 19.3 °F 17.6 °F 60% 30.16 in 10.0 mi North 15.0 mph 25.3 mph N/A   Clear
5:55 AM 30.2 °F 18.5 °F 17.6 °F 60% 30.16 in 10.0 mi North 17.3 mph 24.2 mph N/A   Clear
6:35 AM 30.2 °F 17.4 °F 17.6 °F 60% 30.18 in 10.0 mi NNE 20.7 mph 24.2 mph N/A   Clear
6:55 AM 30.2 °F 18.5 °F 17.6 °F 60% 30.19 in 10.0 mi North 17.3 mph - N/A   Clear
7:15 AM 30.2 °F 18.9 °F 17.6 °F 60% 30.20 in 10.0 mi North 16.1 mph 21.9 mph N/A   Clear
7:35 AM 32.0 °F 20.1 °F 17.6 °F 55% 30.21 in 10.0 mi North 19.6 mph 27.6 mph N/A   Clear
7:55 AM 33.8 °F 22.5 °F 17.6 °F 52% 30.21 in 10.0 mi NNE 19.6 mph 26.5 mph N/A   Clear
8:15 AM 33.8 °F 23.2 °F 19.4 °F 56% 30.21 in 10.0 mi NNE 17.3 mph 23.0 mph N/A   Clear
8:55 AM 33.8 °F 22.5 °F 19.4 °F 56% 30.22 in 10.0 mi NNE 19.6 mph - N/A   Clear
9:15 AM 35.6 °F 25.9 °F 19.4 °F 52% 30.22 in 10.0 mi NNE 16.1 mph - N/A   Clear
9:35 AM 35.6 °F 25.5 °F 19.4 °F 52% 30.22 in 10.0 mi NNE 17.3 mph 20.7 mph N/A   Clear
9:55 AM 35.6 °F 25.2 °F 19.4 °F 52% 30.23 in 10.0 mi NNE 18.4 mph 23.0 mph N/A   Clear
10:15 AM 37.4 °F 28.2 °F 21.2 °F 52% 30.22 in 10.0 mi NNE 16.1 mph 21.9 mph N/A   Clear
10:35 AM 37.4 °F 29.3 °F 21.2 °F 52% 30.23 in 10.0 mi NNE 12.7 mph - N/A   Clear
10:55 AM 37.4 °F 28.2 °F 21.2 °F 52% 30.23 in 10.0 mi NNE 16.1 mph - N/A   Clear
11:15 AM 39.2 °F 32.5 °F 21.2 °F 49% 30.23 in 10.0 mi North 10.4 mph - N/A   Clear
11:35 AM 39.2 °F 31.6 °F 23.0 °F 52% 30.24 in 10.0 mi NNE 12.7 mph - N/A   Clear
11:55 AM 39.2 °F 29.8 °F 21.2 °F 49% 30.24 in 10.0 mi NNE 18.4 mph 23.0 mph N/A   Clear
12:15 PM 39.2 °F 31.2 °F 21.2 °F 49% 30.24 in 10.0 mi NNE 13.8 mph - N/A   Clear
12:35 PM 41.0 °F 34.7 °F 23.0 °F 49% 30.23 in 10.0 mi North 10.4 mph - N/A   Clear
12:55 PM 42.8 °F 36.6 °F 23.0 °F 46% 30.23 in 10.0 mi NNE 11.5 mph - N/A   Clear
1:35 PM 42.8 °F 37.0 °F 23.0 °F 46% 30.23 in 10.0 mi NNE 10.4 mph - N/A   Clear
6:35 PM 35.6 °F 30.7 °F 24.8 °F 65% 30.29 in 10.0 mi ENE 5.8 mph - N/A   Clear
6:55 PM 35.6 °F 29.9 °F 24.8 °F 65% 30.30 in 10.0 mi ENE 6.9 mph - N/A   Clear
7:15 PM 33.8 °F 29.6 °F 24.8 °F 70% 30.30 in 10.0 mi ENE 4.6 mph - N/A   Clear
7:35 PM 33.8 °F 29.6 °F 24.8 °F 70% 30.30 in 10.0 mi NE 4.6 mph - N/A   Clear
7:55 PM 32.0 °F 28.7 °F 24.8 °F 75% 30.31 in 10.0 mi North 3.5 mph - N/A   Clear
8:15 PM 32.0 °F 28.7 °F 24.8 °F 75% 30.32 in 10.0 mi NNE 3.5 mph - N/A   Clear
8:55 PM 30.2 °F 25.4 °F 24.8 °F 80% 30.32 in 10.0 mi NNE 4.6 mph - N/A   Clear
9:15 PM 30.2 °F 26.7 °F 24.8 °F 80% 30.33 in 10.0 mi North 3.5 mph - N/A   Clear
9:35 PM 28.4 °F 23.3 °F 24.8 °F 86% 30.33 in 10.0 mi NNE 4.6 mph - N/A   Clear
9:55 PM 30.2 °F 24.3 °F 24.8 °F 80% 30.32 in 10.0 mi NNE 5.8 mph - N/A   Clear
10:15 PM 28.4 °F 23.3 °F 24.8 °F 86% 30.32 in 10.0 mi NNE 4.6 mph - N/A   Clear
10:35 PM 28.4 °F 22.2 °F 24.8 °F 86% 30.32 in 10.0 mi NNE 5.8 mph - N/A   Clear
11:15 PM 28.4 °F 23.3 °F 24.8 °F 86% 30.32 in 10.0 mi NNE 4.6 mph - N/A   Clear